Flag for Canada Weather past 2 weeks in Dieppe, New Brunswick, Canada

Now
19 °F

Overcast.


Feels Like: 4 °F
Forecast: 3 / 19 °F
Wind: 17 mph from West

Location: Moncton

Current Time: Mar 2, 2015 at 11:31:24 PM

Latest Report: Mar 2, 2015 at 11:00 PM


Visibility: 15 mi

Pressure: 29.70 "Hg

Humidity: 68%

Dew point: 10 °F

Location of DieppeLocation

Historic Weather in Dieppe — Graph

°F

Dieppe temperature yesterday

Maximum temperature yesterday: 28 °F (at 3:00 PM)
Minimum temperature yesterday: 3 °F (at 6:00 AM)
Average temperature yesterday: 16 °F

Past Weeks' High & Low Weather Summary

 TemperatureHumidityPressure
High34 °F (Feb 15, 10:00 PM)100% (Feb 15, 10:00 PM)30.62 "Hg (Feb 15, 10:00 PM)
Low-13 °F (Feb 24, 5:00 AM)35% (Feb 21, 3:00 PM)28.90 "Hg (Feb 16, 12:00 AM)
Average14 °F70%29.91 "Hg
* Reported Feb 15 10:00 PM — Mar 2 10:00 PM, Dieppe, Weather by CustomWeather, © 2015

Note: Actual official high and low records may vary slightly from our data, if they occured in-between our weather recording intervals... More about our weather records

Advertising

Dieppe weather history for previous 24 hours

 ConditionsComfort  
Time TempWeatherWind HumidityBarometerVisibility
10:00 PM
Mon, Mar 2
19 °FOvercast.14 mph68%29.68 "Hg15 mi
9:00 PM21 °FLow level haze.15 mph63%29.66 "Hg15 mi
8:00 PM23 °FSnow flurries. Mostly cloudy.14 mph74%29.65 "Hg15 mi
7:00 PM25 °FSnow flurries. Mostly cloudy.20 mph69%29.61 "Hg10 mi
6:54 PM25 °FSnow flurries. Mostly cloudy.17 mph74%29.60 "Hg10 mi
6:00 PM23 °FBroken clouds.12 mph86%29.58 "Hg15 mi
5:04 PM25 °FLight snow. Mostly cloudy.13 mph86%29.55 "Hg3 mi
5:00 PM25 °FLight snow. Mostly cloudy.15 mph86%29.55 "Hg1 mi
4:00 PM27 °FLight snow. Cloudy.13 mph74%29.54 "Hg3 mi
3:00 PM27 °FLight snow. Cloudy.15 mph74%29.55 "Hg2 mi
2:00 PM25 °FLight snow. More clouds than sun.14 mph80%29.57 "Hg1 mi
1:00 PM27 °FLight snow. Mostly cloudy.15 mph74%29.59 "Hg1 mi
12:00 PM27 °FLight snow. Mostly cloudy.10 mph80%29.63 "Hg2 mi
11:00 AM27 °FLight snow. Mostly cloudy.12 mph86%29.67 "Hg1 mi
10:48 AM27 °FLight snow. Mostly cloudy.8 mph86%29.68 "Hg1 mi
10:00 AM27 °FLight snow. Cloudy.7 mph86%29.72 "Hg1 mi
9:00 AM27 °FLight snow. Mostly cloudy.5 mph86%29.75 "Hg4 mi
8:45 AM27 °FLight snow. Mostly cloudy.5 mph86%29.76 "Hg2 mi
8:00 AM25 °FLight snow. Mostly cloudy.3 mph93%29.79 "Hg1 mi
7:00 AM25 °FLight snow. Overcast.6 mph93%29.82 "Hg2 mi
6:00 AM25 °FLight snow. Overcast.3 mph93%29.86 "Hg2 mi
5:52 AM25 °FLight snow. Overcast.6 mph93%29.87 "Hg2 mi
5:00 AM25 °FLight snow. Overcast.6 mph93%29.92 "Hg5 mi
4:00 AM25 °FLight snow. Overcast.7 mph93%29.97 "Hg2 mi
3:00 AM25 °FLight snow. Overcast.7 mph93%30.02 "Hg2 mi
2:00 AM25 °FSnow flurries. Overcast.9 mph86%30.07 "Hg3 mi
1:00 AM25 °FSnow flurries. Overcast.9 mph80%30.10 "Hg10 mi
12:00 AM23 °FSnow flurries. Overcast.9 mph80%30.15 "Hg12 mi
11:00 PM
Sun, Mar 1
23 °FOvercast.12 mph80%30.19 "Hg15 mi
Weather by CustomWeather, © 2015

See weather overviewHow to use our weather pages